Flag for U.S.A. Weather past 2 weeks in Everett, Washington, U.S.A.

Now
41 °F

Overcast.


Feels Like: 36 °F
Forecast: 38 / 52 °F
Wind: 7 mph from North

Location: Snohomish County Airport

Current Time: Mar 2, 2015 at 4:21:58 AM

Latest Report: Mar 2, 2015 at 3:53 AM


Visibility: 10 mi

Pressure: 29.99 "Hg

Humidity: 82%

Dew point: 36 °F

Location of EverettLocation

Historic Weather in Everett — Graph

°F

Everett temperature yesterday

Maximum temperature yesterday: 49 °F (at 11:53 AM)
Minimum temperature yesterday: 36 °F (at 3:53 AM)
Average temperature yesterday: 43 °F

Past Weeks' High & Low Weather Summary

 TemperatureHumidityPressure
High56 °F (Feb 17, 1:53 PM)96% (Feb 20, 3:53 AM)30.48 "Hg (Feb 20, 3:53 AM)
Low35 °F (Feb 23, 3:53 AM)32% (Feb 28, 2:53 PM)29.74 "Hg (Feb 27, 5:53 AM)
Average45 °F74%30.25 "Hg
* Reported Feb 15 2:53 AM — Mar 2 2:53 AM, Everett, Weather by CustomWeather, © 2015

Note: Actual official high and low records may vary slightly from our data, if they occured in-between our weather recording intervals... More about our weather records

Advertising

Everett weather history for previous 24 hours

 ConditionsComfort  
Time TempWeatherWind HumidityBarometerVisibility
2:53 AM
Mon, Mar 2
41 °FOvercast.6 mph82%30.00 "Hg10 mi
1:53 AM41 °FOvercast.9 mph80%29.99 "Hg10 mi
12:53 AM41 °FOvercast.9 mph80%29.98 "Hg10 mi
11:53 PM
Sun, Mar 1
42 °FMostly cloudy.10 mph73%29.98 "Hg10 mi
10:53 PM42 °FOvercast.9 mph73%29.99 "Hg10 mi
9:53 PM42 °FMostly cloudy.12 mph73%29.98 "Hg10 mi
8:53 PM42 °FOvercast.12 mph79%29.99 "Hg10 mi
7:53 PM43 °FOvercast.6 mph71%30.00 "Hg10 mi
6:53 PM45 °FOvercast.3 mph60%30.00 "Hg10 mi
5:53 PM46 °FOvercast.5 mph68%30.01 "Hg10 mi
4:53 PM47 °FOvercast.5 mph52%30.03 "Hg10 mi
3:53 PM48 °FOvercast.5 mph48%30.05 "Hg10 mi
2:53 PM48 °FOvercast.6 mph52%30.08 "Hg10 mi
1:53 PM49 °FSunny.6 mph50%30.10 "Hg10 mi
12:53 PM49 °FSunny.6 mph55%30.13 "Hg10 mi
11:53 AM49 °FSunny.5 mph46%30.17 "Hg10 mi
10:53 AM47 °FSunny.8 mph50%30.19 "Hg10 mi
9:53 AM45 °FSunny.6 mph53%30.21 "Hg10 mi
8:53 AM41 °FSunny.8 mph65%30.23 "Hg10 mi
7:53 AM38 °FSunny.5 mph70%30.24 "Hg9 mi
6:53 AM36 °FSunny.No wind75%30.23 "Hg10 mi
5:53 AM36 °FClear.3 mph75%30.24 "Hg10 mi
4:53 AM37 °FClear.7 mph73%30.23 "Hg10 mi
Weather by CustomWeather, © 2015

See weather overviewHow to use our weather pages